Time,TemperatureF,DewpointF,PressureIn,WindDirection,WindDirectionDegrees,WindSpeedMPH,WindSpeedGustMPH,Humidity,HourlyPrecipIn,Conditions,Clouds,dailyrainin,SolarRadiationWatts/m^2,SoftwareType,DateUTC
2013-05-27 00:00:00,54.0,35.3,30.22,NNW,338,1.0,2.0,49,-99.99,,,0.00,0.00,VWS V14.01,2013-05-27 04:00:00,
2013-05-27 00:04:00,54.0,35.3,30.22,NNW,338,3.0,4.0,49,-99.99,,,0.00,0.00,VWS V14.01,2013-05-27 04:04:00,
2013-05-27 00:09:00,54.0,34.8,30.22,North,0,4.0,4.0,48,-99.99,,,0.00,0.00,VWS V14.01,2013-05-27 04:09:00,
2013-05-27 00:14:00,53.0,36.8,30.22,NE,45,3.0,3.0,54,-99.99,,,0.00,0.00,VWS V14.01,2013-05-27 04:14:00,
2013-05-27 00:19:00,52.0,37.2,30.22,ENE,68,3.0,3.0,57,-99.99,,,0.00,0.00,VWS V14.01,2013-05-27 04:19:00,
2013-05-27 00:24:00,52.0,38.6,30.22,NE,45,1.0,1.0,60,-99.99,,,0.00,0.00,VWS V14.01,2013-05-27 04:24:00,
2013-05-27 00:29:00,52.0,39.0,30.22,ENE,68,2.0,3.0,61,-99.99,,,0.00,0.00,VWS V14.01,2013-05-27 04:29:00,
2013-05-27 00:34:00,51.0,38.5,30.23,ENE,68,2.0,2.0,62,-99.99,,,0.00,0.00,VWS V14.01,2013-05-27 04:34:00,
2013-05-27 00:39:00,51.0,38.9,30.23,NE,45,1.0,3.0,63,-99.99,,,0.00,0.00,VWS V14.01,2013-05-27 04:39:00,
2013-05-27 00:44:00,51.0,39.3,30.22,NE,45,0.0,1.0,64,-99.99,,,0.00,0.00,VWS V14.01,2013-05-27 04:44:00,
2013-05-27 00:49:00,51.0,40.1,30.23,ENE,68,2.0,2.0,66,-99.99,,,0.00,0.00,VWS V14.01,2013-05-27 04:49:00,
2013-05-27 00:54:00,51.0,40.4,30.23,ESE,112,2.0,2.0,67,-99.99,,,0.00,0.00,VWS V14.01,2013-05-27 04:54:00,
2013-05-27 00:59:00,50.0,39.1,30.23,South,180,1.0,2.0,66,-99.99,,,0.00,0.00,VWS V14.01,2013-05-27 04:59:00,
2013-05-27 01:04:00,50.0,38.3,30.23,SW,225,3.0,3.0,64,-99.99,,,0.00,0.00,VWS V14.01,2013-05-27 05:04:00,
2013-05-27 01:09:00,50.0,38.7,30.24,SW,225,3.0,4.0,65,-99.99,,,0.00,0.00,VWS V14.01,2013-05-27 05:09:00,
2013-05-27 01:14:00,50.0,40.2,30.23,SSW,202,1.0,2.0,69,-99.99,,,0.00,0.00,VWS V14.01,2013-05-27 05:14:00,
2013-05-27 01:19:00,49.0,39.3,30.23,South,180,2.0,3.0,69,-99.99,,,0.00,0.00,VWS V14.01,2013-05-27 05:19:00,
2013-05-27 01:24:00,49.0,40.0,30.23,SSW,202,3.0,4.0,71,-99.99,,,0.00,0.00,VWS V14.01,2013-05-27 05:24:00,
2013-05-27 01:29:00,49.0,40.7,30.23,SW,225,3.0,3.0,73,-99.99,,,0.00,0.00,VWS V14.01,2013-05-27 05:29:00,
2013-05-27 01:34:00,49.0,40.4,30.24,West,270,2.0,3.0,72,-99.99,,,0.00,0.00,VWS V14.01,2013-05-27 05:34:00,
2013-05-27 01:39:00,49.0,40.0,30.24,WNW,292,2.0,4.0,71,-99.99,,,0.00,0.00,VWS V14.01,2013-05-27 05:39:00,
2013-05-27 01:44:00,49.0,39.3,30.24,SW,225,3.0,4.0,69,-99.99,,,0.00,0.00,VWS V14.01,2013-05-27 05:44:00,
2013-05-27 01:49:00,49.0,38.9,30.24,WSW,248,0.0,1.0,68,-99.99,,,0.00,0.00,VWS V14.01,2013-05-27 05:49:00,
2013-05-27 01:54:00,49.0,39.7,30.24,ESE,112,2.0,3.0,70,-99.99,,,0.00,0.00,VWS V14.01,2013-05-27 05:54:00,
2013-05-27 01:59:00,49.0,39.7,30.24,ESE,112,0.0,1.0,70,-99.99,,,0.00,0.00,VWS V14.01,2013-05-27 05:59:00,
2013-05-27 02:04:00,49.0,40.0,30.24,ESE,112,0.0,0.0,71,-99.99,,,0.00,0.00,VWS V14.01,2013-05-27 06:04:00,
2013-05-27 02:09:00,48.0,39.4,30.24,SW,225,3.0,3.0,72,-99.99,,,0.00,0.00,VWS V14.01,2013-05-27 06:09:00,
2013-05-27 02:14:00,48.0,39.1,30.25,SW,225,1.0,2.0,71,-99.99,,,0.00,0.00,VWS V14.01,2013-05-27 06:14:00,
2013-05-27 02:19:00,48.0,38.7,30.25,SSW,202,2.0,2.0,70,-99.99,,,0.00,0.00,VWS V14.01,2013-05-27 06:19:00,
2013-05-27 02:24:00,47.0,38.1,30.25,South,180,1.0,2.0,71,-99.99,,,0.00,0.00,VWS V14.01,2013-05-27 06:24:00,
2013-05-27 02:29:00,47.0,39.2,30.25,SSW,202,1.0,2.0,74,-99.99,,,0.00,0.00,VWS V14.01,2013-05-27 06:29:00,
2013-05-27 02:34:00,47.0,39.8,30.24,SW,225,0.0,1.0,76,-99.99,,,0.00,0.00,VWS V14.01,2013-05-27 06:34:00,
2013-05-27 02:39:00,47.0,39.5,30.25,SSW,202,1.0,2.0,75,-99.99,,,0.00,0.00,VWS V14.01,2013-05-27 06:39:00,
2013-05-27 02:44:00,47.0,40.2,30.24,SSW,202,1.0,1.0,77,-99.99,,,0.00,0.00,VWS V14.01,2013-05-27 06:44:00,
2013-05-27 02:49:00,46.0,39.2,30.24,SSW,202,0.0,0.0,77,-99.99,,,0.00,0.00,VWS V14.01,2013-05-27 06:49:00,
2013-05-27 02:54:00,46.0,39.5,30.24,South,180,1.0,2.0,78,-99.99,,,0.00,0.00,VWS V14.01,2013-05-27 06:54:00,
2013-05-27 02:59:00,46.0,39.9,30.24,SSE,158,1.0,2.0,79,-99.99,,,0.00,0.00,VWS V14.01,2013-05-27 06:59:00,
2013-05-27 03:04:00,46.0,40.2,30.25,SE,135,2.0,2.0,80,-99.99,,,0.00,0.00,VWS V14.01,2013-05-27 07:04:00,
2013-05-27 03:09:00,46.0,41.1,30.24,East,90,1.0,2.0,83,-99.99,,,0.00,0.00,VWS V14.01,2013-05-27 07:09:00,
2013-05-27 03:14:00,46.0,41.4,30.24,ESE,112,1.0,2.0,84,-99.99,,,0.00,0.00,VWS V14.01,2013-05-27 07:14:00,
2013-05-27 03:19:00,46.0,41.1,30.24,ESE,112,1.0,3.0,83,-99.99,,,0.00,0.00,VWS V14.01,2013-05-27 07:19:00,
2013-05-27 03:24:00,46.0,40.8,30.24,NE,45,1.0,2.0,82,-99.99,,,0.00,0.00,VWS V14.01,2013-05-27 07:24:00,
2013-05-27 03:29:00,46.0,41.1,30.24,NE,45,0.0,1.0,83,-99.99,,,0.00,0.00,VWS V14.01,2013-05-27 07:29:00,
2013-05-27 03:34:00,45.0,40.8,30.24,NE,45,1.0,4.0,85,-99.99,,,0.00,0.00,VWS V14.01,2013-05-27 07:34:00,
2013-05-27 03:39:00,45.0,40.8,30.24,ENE,68,1.0,1.0,85,-99.99,,,0.00,0.00,VWS V14.01,2013-05-27 07:39:00,
2013-05-27 03:44:00,45.0,41.1,30.24,NE,45,2.0,3.0,86,-99.99,,,0.00,0.00,VWS V14.01,2013-05-27 07:44:00,
2013-05-27 03:49:00,45.0,41.4,30.24,NE,45,1.0,1.0,87,-99.99,,,0.00,0.00,VWS V14.01,2013-05-27 07:49:00,
2013-05-27 03:54:00,45.0,41.4,30.24,NE,45,1.0,2.0,87,-99.99,,,0.00,0.00,VWS V14.01,2013-05-27 07:54:00,
2013-05-27 03:59:00,44.0,40.4,30.24,North,0,3.0,3.0,87,-99.99,,,0.00,0.00,VWS V14.01,2013-05-27 07:59:00,
2013-05-27 04:04:00,45.0,41.4,30.25,NE,45,4.0,4.0,87,-99.99,,,0.00,0.00,VWS V14.01,2013-05-27 08:04:00,
2013-05-27 04:09:00,44.0,40.4,30.25,NE,45,1.0,2.0,87,-99.99,,,0.00,0.00,VWS V14.01,2013-05-27 08:09:00,
2013-05-27 04:14:00,44.0,40.4,30.25,ESE,112,2.0,4.0,87,-99.99,,,0.00,0.00,VWS V14.01,2013-05-27 08:14:00,
2013-05-27 04:19:00,43.0,39.4,30.25,SSE,158,1.0,1.0,87,-99.99,,,0.00,0.00,VWS V14.01,2013-05-27 08:19:00,
2013-05-27 04:24:00,43.0,39.4,30.25,WSW,248,4.0,4.0,87,-99.99,,,0.00,0.00,VWS V14.01,2013-05-27 08:24:00,
2013-05-27 04:29:00,43.0,39.4,30.25,West,270,4.0,4.0,87,-99.99,,,0.00,0.00,VWS V14.01,2013-05-27 08:29:00,
2013-05-27 04:34:00,43.0,39.7,30.26,West,270,4.0,4.0,88,-99.99,,,0.00,0.00,VWS V14.01,2013-05-27 08:34:00,
2013-05-27 04:39:00,43.0,39.7,30.26,SSW,202,3.0,3.0,88,-99.99,,,0.00,0.00,VWS V14.01,2013-05-27 08:39:00,
2013-05-27 04:44:00,43.0,39.7,30.26,SSW,202,3.0,3.0,88,-99.99,,,0.00,0.00,VWS V14.01,2013-05-27 08:44:00,
2013-05-27 04:49:00,43.0,39.7,30.26,SSW,202,1.0,1.0,88,-99.99,,,0.00,0.00,VWS V14.01,2013-05-27 08:49:00,
2013-05-27 04:54:00,43.0,39.7,30.25,SSW,202,1.0,1.0,88,-99.99,,,0.00,0.00,VWS V14.01,2013-05-27 08:54:00,
2013-05-27 04:59:00,43.0,40.0,30.25,SE,135,3.0,3.0,89,-99.99,,,0.00,0.00,VWS V14.01,2013-05-27 08:59:00,
2013-05-27 05:04:00,43.0,40.3,30.25,ESE,112,1.0,1.0,90,-99.99,,,0.00,0.00,VWS V14.01,2013-05-27 09:04:00,
2013-05-27 05:09:00,43.0,40.3,30.26,SW,225,1.0,2.0,90,-99.99,,,0.00,0.00,VWS V14.01,2013-05-27 09:09:00,
2013-05-27 05:14:00,43.0,40.6,30.26,ESE,112,2.0,2.0,91,-99.99,,,0.00,0.00,VWS V14.01,2013-05-27 09:14:00,
2013-05-27 05:19:00,43.0,40.6,30.26,SE,135,2.0,2.0,91,-99.99,,,0.00,0.00,VWS V14.01,2013-05-27 09:19:00,
2013-05-27 05:24:00,43.0,40.8,30.26,SSE,158,1.0,1.0,92,-99.99,,,0.00,0.00,VWS V14.01,2013-05-27 09:24:00,
2013-05-27 05:29:00,43.0,40.8,30.26,South,180,1.0,1.0,92,-99.99,,,0.00,0.00,VWS V14.01,2013-05-27 09:29:00,
2013-05-27 05:34:00,43.0,40.8,30.26,NNE,22,2.0,2.0,92,-99.99,,,0.00,10.00,VWS V14.01,2013-05-27 09:34:00,
2013-05-27 05:39:00,42.0,39.8,30.26,NE,45,3.0,3.0,92,-99.99,,,0.00,10.00,VWS V14.01,2013-05-27 09:39:00,
2013-05-27 05:44:00,42.0,39.8,30.26,NE,45,1.0,1.0,92,-99.99,,,0.00,10.00,VWS V14.01,2013-05-27 09:44:00,
2013-05-27 05:49:00,42.0,40.1,30.26,NE,45,2.0,2.0,93,-99.99,,,0.00,40.00,VWS V14.01,2013-05-27 09:49:00,
2013-05-27 05:54:00,43.0,41.1,30.26,NE,45,1.0,1.0,93,-99.99,,,0.00,50.00,VWS V14.01,2013-05-27 09:54:00,
2013-05-27 05:59:00,43.0,40.8,30.26,ESE,112,2.0,3.0,92,-99.99,,,0.00,60.00,VWS V14.01,2013-05-27 09:59:00,
2013-05-27 06:04:00,43.0,40.8,30.26,SE,135,2.0,2.0,92,-99.99,,,0.00,80.00,VWS V14.01,2013-05-27 10:04:00,
2013-05-27 06:09:00,43.0,40.8,30.26,ENE,68,1.0,2.0,92,-99.99,,,0.00,60.00,VWS V14.01,2013-05-27 10:09:00,
2013-05-27 06:14:00,43.0,40.8,30.26,NW,315,2.0,2.0,92,-99.99,,,0.00,110.00,VWS V14.01,2013-05-27 10:14:00,
2013-05-27 06:20:00,43.0,40.8,30.26,North,0,3.0,3.0,92,-99.99,,,0.00,120.00,VWS V14.01,2013-05-27 10:20:00,
2013-05-27 06:25:00,43.0,40.8,30.26,NNW,338,2.0,2.0,92,-99.99,,,0.00,120.00,VWS V14.01,2013-05-27 10:25:00,
2013-05-27 06:30:00,44.0,41.8,30.26,ENE,68,2.0,3.0,92,-99.99,,,0.00,150.00,VWS V14.01,2013-05-27 10:30:00,
2013-05-27 06:35:00,44.0,41.5,30.26,East,90,2.0,4.0,91,-99.99,,,0.00,170.00,VWS V14.01,2013-05-27 10:35:00,
2013-05-27 06:40:00,44.0,41.5,30.26,East,90,3.0,3.0,91,-99.99,,,0.00,180.00,VWS V14.01,2013-05-27 10:40:00,
2013-05-27 06:45:00,44.0,41.5,30.26,ESE,112,2.0,3.0,91,-99.99,,,0.00,190.00,VWS V14.01,2013-05-27 10:45:00,
2013-05-27 06:50:00,44.0,41.5,30.27,ESE,112,2.0,2.0,91,-99.99,,,0.00,210.00,VWS V14.01,2013-05-27 10:50:00,
2013-05-27 06:55:00,44.0,41.5,30.27,ESE,112,2.0,3.0,91,-99.99,,,0.00,220.00,VWS V14.01,2013-05-27 10:55:00,
2013-05-27 07:00:00,44.0,41.3,30.27,SE,135,1.0,2.0,90,-99.99,,,0.00,230.00,VWS V14.01,2013-05-27 11:00:00,
2013-05-27 07:05:00,44.0,41.3,30.27,ESE,112,1.0,1.0,90,-99.99,,,0.00,240.00,VWS V14.01,2013-05-27 11:05:00,
2013-05-27 07:10:00,45.0,42.0,30.27,SE,135,1.0,1.0,89,-99.99,,,0.00,260.00,VWS V14.01,2013-05-27 11:10:00,
2013-05-27 07:15:00,46.0,42.7,30.27,ESE,112,1.0,3.0,88,-99.99,,,0.00,270.00,VWS V14.01,2013-05-27 11:15:00,
2013-05-27 07:20:00,46.0,42.0,30.27,SE,135,2.0,2.0,86,-99.99,,,0.00,280.00,VWS V14.01,2013-05-27 11:20:00,
2013-05-27 07:25:00,46.0,41.8,30.27,ESE,112,0.0,1.0,85,-99.99,,,0.00,290.00,VWS V14.01,2013-05-27 11:25:00,
2013-05-27 07:30:00,47.0,42.7,30.27,ESE,112,0.0,1.0,85,-99.99,,,0.00,310.00,VWS V14.01,2013-05-27 11:30:00,
2013-05-27 07:35:00,47.0,42.7,30.27,South,180,0.0,1.0,85,-99.99,,,0.00,320.00,VWS V14.01,2013-05-27 11:35:00,
2013-05-27 07:40:00,48.0,43.1,30.28,ESE,112,1.0,1.0,83,-99.99,,,0.00,330.00,VWS V14.01,2013-05-27 11:40:00,
2013-05-27 07:45:00,48.0,42.5,30.28,ESE,112,2.0,3.0,81,-99.99,,,0.00,340.00,VWS V14.01,2013-05-27 11:45:00,
2013-05-27 07:50:00,48.0,42.1,30.28,ESE,112,4.0,4.0,80,-99.99,,,0.00,350.00,VWS V14.01,2013-05-27 11:50:00,
2013-05-27 07:55:00,48.0,41.8,30.28,East,90,3.0,3.0,79,-99.99,,,0.00,370.00,VWS V14.01,2013-05-27 11:55:00,
2013-05-27 08:00:00,48.0,41.8,30.28,SSE,158,1.0,3.0,79,-99.99,,,0.00,380.00,VWS V14.01,2013-05-27 12:00:00,
2013-05-27 08:05:00,49.0,42.5,30.28,SE,135,1.0,2.0,78,-99.99,,,0.00,390.00,VWS V14.01,2013-05-27 12:05:00,
2013-05-27 08:10:00,50.0,42.7,30.28,SSE,158,1.0,2.0,76,-99.99,,,0.00,400.00,VWS V14.01,2013-05-27 12:10:00,
2013-05-27 08:15:00,50.0,41.7,30.28,East,90,3.0,4.0,73,-99.99,,,0.00,410.00,VWS V14.01,2013-05-27 12:15:00,
2013-05-27 08:20:00,50.0,40.6,30.28,South,180,2.0,3.0,70,-99.99,,,0.00,430.00,VWS V14.01,2013-05-27 12:20:00,
2013-05-27 08:25:00,50.0,40.6,30.27,SE,135,4.0,4.0,70,-99.99,,,0.00,440.00,VWS V14.01,2013-05-27 12:25:00,
2013-05-27 08:30:00,50.0,40.6,30.27,SSE,158,4.0,4.0,70,-99.99,,,0.00,450.00,VWS V14.01,2013-05-27 12:30:00,
2013-05-27 08:35:00,51.0,41.6,30.27,SW,225,3.0,4.0,70,-99.99,,,0.00,470.00,VWS V14.01,2013-05-27 12:35:00,
2013-05-27 08:40:00,51.0,40.4,30.27,South,180,3.0,4.0,67,-99.99,,,0.00,480.00,VWS V14.01,2013-05-27 12:40:00,
2013-05-27 08:45:00,52.0,41.4,30.27,SSE,158,3.0,4.0,67,-99.99,,,0.00,490.00,VWS V14.01,2013-05-27 12:45:00,
2013-05-27 08:50:00,52.0,41.0,30.27,SSE,158,3.0,4.0,66,-99.99,,,0.00,500.00,VWS V14.01,2013-05-27 12:50:00,
2013-05-27 08:55:00,53.0,42.3,30.28,ESE,112,2.0,5.0,67,-99.99,,,0.00,510.00,VWS V14.01,2013-05-27 12:55:00,
2013-05-27 09:00:00,54.0,42.5,30.27,NNE,22,3.0,3.0,65,-99.99,,,0.00,520.00,VWS V14.01,2013-05-27 13:00:00,
2013-05-27 09:05:00,55.0,42.2,30.27,WSW,248,4.0,4.0,62,-99.99,,,0.00,530.00,VWS V14.01,2013-05-27 13:05:00,
2013-05-27 09:10:00,55.0,42.2,30.27,SE,135,2.0,2.0,62,-99.99,,,0.00,550.00,VWS V14.01,2013-05-27 13:10:00,
2013-05-27 09:15:00,55.0,42.2,30.27,SE,135,1.0,3.0,62,-99.99,,,0.00,560.00,VWS V14.01,2013-05-27 13:15:00,
2013-05-27 09:20:00,56.0,42.8,30.27,SW,225,5.0,5.0,61,-99.99,,,0.00,570.00,VWS V14.01,2013-05-27 13:20:00,
2013-05-27 09:25:00,56.0,42.3,30.27,WSW,248,4.0,4.0,60,-99.99,,,0.00,580.00,VWS V14.01,2013-05-27 13:25:00,
2013-05-27 09:30:00,57.0,42.4,30.27,South,180,1.0,4.0,58,-99.99,,,0.00,580.00,VWS V14.01,2013-05-27 13:30:00,
2013-05-27 09:35:00,57.0,42.4,30.27,SSE,158,2.0,4.0,58,-99.99,,,0.00,590.00,VWS V14.01,2013-05-27 13:35:00,
2013-05-27 09:40:00,58.0,43.3,30.27,NE,45,1.0,3.0,58,-99.99,,,0.00,580.00,VWS V14.01,2013-05-27 13:40:00,
2013-05-27 09:45:00,58.0,42.4,30.27,West,270,4.0,4.0,56,-99.99,,,0.00,610.00,VWS V14.01,2013-05-27 13:45:00,
2013-05-27 09:50:00,59.0,42.9,30.27,SW,225,1.0,3.0,55,-99.99,,,0.00,600.00,VWS V14.01,2013-05-27 13:50:00,
2013-05-27 09:55:00,59.0,42.4,30.27,SSW,202,5.0,5.0,54,-99.99,,,0.00,670.00,VWS V14.01,2013-05-27 13:55:00,
2013-05-27 10:00:00,59.0,41.9,30.27,South,180,7.0,9.0,53,-99.99,,,0.00,670.00,VWS V14.01,2013-05-27 14:00:00,
2013-05-27 10:05:00,59.0,40.9,30.27,SSW,202,4.0,5.0,51,-99.99,,,0.00,670.00,VWS V14.01,2013-05-27 14:05:00,
2013-05-27 10:10:00,59.0,40.9,30.27,WNW,292,1.0,2.0,51,-99.99,,,0.00,670.00,VWS V14.01,2013-05-27 14:10:00,
2013-05-27 10:15:00,60.0,40.3,30.27,SW,225,5.0,7.0,48,-99.99,,,0.00,680.00,VWS V14.01,2013-05-27 14:15:00,
2013-05-27 10:20:00,60.0,40.3,30.27,SW,225,2.0,3.0,48,-99.99,,,0.00,690.00,VWS V14.01,2013-05-27 14:20:00,
2013-05-27 10:25:00,60.0,39.2,30.27,South,180,2.0,9.0,46,-99.99,,,0.00,700.00,VWS V14.01,2013-05-27 14:25:00,
2013-05-27 10:30:00,61.0,39.0,30.27,SW,225,6.0,11.0,44,-99.99,,,0.00,700.00,VWS V14.01,2013-05-27 14:30:00,
2013-05-27 10:35:00,60.0,36.2,30.26,SW,225,11.0,12.0,41,-99.99,,,0.00,730.00,VWS V14.01,2013-05-27 14:35:00,
2013-05-27 10:40:00,61.0,37.2,30.26,SW,225,6.0,6.0,41,-99.99,,,0.00,740.00,VWS V14.01,2013-05-27 14:40:00,
2013-05-27 10:45:00,61.0,35.2,30.26,WSW,248,4.0,8.0,38,-99.99,,,0.00,710.00,VWS V14.01,2013-05-27 14:45:00,
2013-05-27 10:50:00,61.0,35.9,30.26,WSW,248,5.0,9.0,39,-99.99,,,0.00,740.00,VWS V14.01,2013-05-27 14:50:00,
2013-05-27 10:55:00,62.0,37.4,30.26,WNW,292,3.0,7.0,40,-99.99,,,0.00,660.00,VWS V14.01,2013-05-27 14:55:00,
2013-05-27 11:00:00,62.0,36.8,30.26,West,270,4.0,8.0,39,-99.99,,,0.00,640.00,VWS V14.01,2013-05-27 15:00:00,
2013-05-27 11:05:00,63.0,37.0,30.26,West,270,6.0,8.0,38,-99.99,,,0.00,820.00,VWS V14.01,2013-05-27 15:05:00,
2013-05-27 11:10:00,63.0,36.3,30.26,WNW,292,5.0,9.0,37,-99.99,,,0.00,790.00,VWS V14.01,2013-05-27 15:10:00,
2013-05-27 11:15:00,63.0,37.0,30.26,West,270,3.0,9.0,38,-99.99,,,0.00,750.00,VWS V14.01,2013-05-27 15:15:00,
2013-05-27 11:20:00,63.0,36.3,30.26,WNW,292,7.0,8.0,37,-99.99,,,0.00,640.00,VWS V14.01,2013-05-27 15:20:00,
2013-05-27 11:25:00,64.0,38.6,30.26,WNW,292,1.0,3.0,39,-99.99,,,0.00,750.00,VWS V14.01,2013-05-27 15:25:00,
2013-05-27 11:30:00,64.0,36.5,30.26,SSW,202,4.0,7.0,36,-99.99,,,0.00,720.00,VWS V14.01,2013-05-27 15:30:00,
2013-05-27 11:35:00,64.0,35.8,30.25,WSW,248,9.0,12.0,35,-99.99,,,0.00,450.00,VWS V14.01,2013-05-27 15:35:00,
2013-05-27 11:40:00,63.0,34.2,30.25,SW,225,5.0,9.0,34,-99.99,,,0.00,610.00,VWS V14.01,2013-05-27 15:40:00,
2013-05-27 11:45:00,64.0,35.8,30.25,SSW,202,7.0,7.0,35,-99.99,,,0.00,770.00,VWS V14.01,2013-05-27 15:45:00,
2013-05-27 11:50:00,65.0,36.0,30.25,SSW,202,2.0,6.0,34,-99.99,,,0.00,760.00,VWS V14.01,2013-05-27 15:50:00,
2013-05-27 11:55:00,65.0,33.7,30.25,SSW,202,13.0,13.0,31,-99.99,,,0.00,780.00,VWS V14.01,2013-05-27 15:55:00,
2013-05-27 12:00:00,65.0,34.5,30.25,SW,225,3.0,10.0,32,-99.99,,,0.00,750.00,VWS V14.01,2013-05-27 16:00:00,
2013-05-27 12:05:00,65.0,35.2,30.25,SW,225,8.0,12.0,33,-99.99,,,0.00,730.00,VWS V14.01,2013-05-27 16:05:00,
2013-05-27 12:10:00,64.0,29.4,30.25,SSW,202,10.0,12.0,27,-99.99,,,0.00,720.00,VWS V14.01,2013-05-27 16:10:00,
2013-05-27 12:15:00,64.0,30.3,30.25,SSW,202,11.0,11.0,28,-99.99,,,0.00,620.00,VWS V14.01,2013-05-27 16:15:00,
2013-05-27 12:20:00,64.0,32.8,30.24,SE,135,4.0,10.0,31,-99.99,,,0.00,550.00,VWS V14.01,2013-05-27 16:20:00,
2013-05-27 12:25:00,64.0,31.1,30.25,SSE,158,7.0,15.0,29,-99.99,,,0.00,650.00,VWS V14.01,2013-05-27 16:25:00,
2013-05-27 12:30:00,65.0,31.1,30.24,SW,225,4.0,12.0,28,-99.99,,,0.00,660.00,VWS V14.01,2013-05-27 16:30:00,
2013-05-27 12:35:00,65.0,31.1,30.24,SSW,202,8.0,15.0,28,-99.99,,,0.00,690.00,VWS V14.01,2013-05-27 16:35:00,
2013-05-27 12:40:00,65.0,32.0,30.24,WSW,248,2.0,3.0,29,-99.99,,,0.00,740.00,VWS V14.01,2013-05-27 16:40:00,
2013-05-27 12:45:00,66.0,33.7,30.24,SW,225,8.0,9.0,30,-99.99,,,0.00,700.00,VWS V14.01,2013-05-27 16:45:00,
2013-05-27 12:50:00,65.0,31.1,30.23,SSE,158,4.0,4.0,28,-99.99,,,0.00,700.00,VWS V14.01,2013-05-27 16:50:00,
2013-05-27 12:55:00,66.0,32.0,30.23,SW,225,7.0,9.0,28,-99.99,,,0.00,630.00,VWS V14.01,2013-05-27 16:55:00,
2013-05-27 13:00:00,66.0,31.1,30.23,SSE,158,8.0,9.0,27,-99.99,,,0.00,640.00,VWS V14.01,2013-05-27 17:00:00,
2013-05-27 13:05:00,67.0,32.0,30.23,West,270,9.0,10.0,27,-99.99,,,0.00,610.00,VWS V14.01,2013-05-27 17:05:00,
2013-05-27 13:10:00,67.0,32.8,30.23,West,270,2.0,2.0,28,-99.99,,,0.00,650.00,VWS V14.01,2013-05-27 17:10:00,
2013-05-27 13:15:00,67.0,30.0,30.23,SSW,202,8.0,8.0,25,-99.99,,,0.00,670.00,VWS V14.01,2013-05-27 17:15:00,
2013-05-27 13:20:00,66.0,32.0,30.22,SW,225,8.0,10.0,28,-99.99,,,0.00,690.00,VWS V14.01,2013-05-27 17:20:00,
2013-05-27 13:25:00,67.0,32.0,30.22,SSW,202,10.0,15.0,27,-99.99,,,0.00,730.00,VWS V14.01,2013-05-27 17:25:00,
2013-05-27 13:30:00,67.0,32.8,30.22,SW,225,12.0,13.0,28,-99.99,,,0.00,680.00,VWS V14.01,2013-05-27 17:30:00,
2013-05-27 13:35:00,66.0,33.7,30.22,SSW,202,9.0,10.0,30,-99.99,,,0.00,670.00,VWS V14.01,2013-05-27 17:35:00,
2013-05-27 13:40:00,67.0,34.6,30.21,WSW,248,4.0,4.0,30,-99.99,,,0.00,670.00,VWS V14.01,2013-05-27 17:40:00,
2013-05-27 13:45:00,67.0,35.4,30.21,West,270,7.0,7.0,31,-99.99,,,0.00,700.00,VWS V14.01,2013-05-27 17:45:00,
2013-05-27 13:50:00,67.0,36.2,30.21,SW,225,9.0,10.0,32,-99.99,,,0.00,660.00,VWS V14.01,2013-05-27 17:50:00,
2013-05-27 13:55:00,67.0,37.0,30.21,SW,225,7.0,9.0,33,-99.99,,,0.00,680.00,VWS V14.01,2013-05-27 17:55:00,
2013-05-27 14:00:00,67.0,37.0,30.21,South,180,6.0,17.0,33,-99.99,,,0.00,680.00,VWS V14.01,2013-05-27 18:00:00,
2013-05-27 14:05:00,67.0,37.0,30.20,South,180,12.0,12.0,33,-99.99,,,0.00,670.00,VWS V14.01,2013-05-27 18:05:00,
2013-05-27 14:10:00,68.0,38.6,30.20,SE,135,8.0,8.0,34,-99.99,,,0.00,630.00,VWS V14.01,2013-05-27 18:10:00,
2013-05-27 14:15:00,68.0,38.6,30.20,SSW,202,6.0,10.0,34,-99.99,,,0.00,650.00,VWS V14.01,2013-05-27 18:15:00,
2013-05-27 14:20:00,69.0,38.7,30.20,SSE,158,7.0,7.0,33,-99.99,,,0.00,640.00,VWS V14.01,2013-05-27 18:20:00,
2013-05-27 14:25:00,69.0,38.7,30.19,South,180,7.0,7.0,33,-99.99,,,0.00,650.00,VWS V14.01,2013-05-27 18:25:00,
2013-05-27 14:30:00,69.0,39.5,30.19,South,180,13.0,13.0,34,-99.99,,,0.00,620.00,VWS V14.01,2013-05-27 18:30:00,
2013-05-27 14:35:00,68.0,39.3,30.19,SW,225,3.0,4.0,35,-99.99,,,0.00,620.00,VWS V14.01,2013-05-27 18:35:00,
2013-05-27 14:40:00,69.0,38.7,30.19,SSW,202,7.0,7.0,33,-99.99,,,0.00,640.00,VWS V14.01,2013-05-27 18:40:00,
2013-05-27 14:45:00,69.0,37.9,30.19,West,270,10.0,10.0,32,-99.99,,,0.00,600.00,VWS V14.01,2013-05-27 18:45:00,
2013-05-27 14:50:00,69.0,38.7,30.19,SSE,158,6.0,6.0,33,-99.99,,,0.00,610.00,VWS V14.01,2013-05-27 18:50:00,
2013-05-27 14:55:00,69.0,39.5,30.19,SSE,158,5.0,5.0,34,-99.99,,,0.00,570.00,VWS V14.01,2013-05-27 18:55:00,
2013-05-27 15:00:00,69.0,37.1,30.19,SW,225,8.0,10.0,31,-99.99,,,0.00,570.00,VWS V14.01,2013-05-27 19:00:00,
2013-05-27 15:05:00,69.0,38.7,30.19,SW,225,6.0,8.0,33,-99.99,,,0.00,560.00,VWS V14.01,2013-05-27 19:05:00,
2013-05-27 15:10:00,69.0,35.5,30.19,WSW,248,8.0,9.0,29,-99.99,,,0.00,530.00,VWS V14.01,2013-05-27 19:10:00,
2013-05-27 15:15:00,69.0,38.7,30.19,SW,225,6.0,7.0,33,-99.99,,,0.00,520.00,VWS V14.01,2013-05-27 19:15:00,
2013-05-27 15:20:00,69.0,37.9,30.19,SSE,158,6.0,7.0,32,-99.99,,,0.00,470.00,VWS V14.01,2013-05-27 19:20:00,
2013-05-27 15:25:00,69.0,38.7,30.18,South,180,7.0,8.0,33,-99.99,,,0.00,470.00,VWS V14.01,2013-05-27 19:25:00,
2013-05-27 15:30:00,69.0,37.9,30.18,SSE,158,5.0,7.0,32,-99.99,,,0.00,500.00,VWS V14.01,2013-05-27 19:30:00,
2013-05-27 15:35:00,69.0,37.9,30.18,SW,225,11.0,11.0,32,-99.99,,,0.00,500.00,VWS V14.01,2013-05-27 19:35:00,
2013-05-27 15:40:00,69.0,37.9,30.18,SSW,202,4.0,4.0,32,-99.99,,,0.00,460.00,VWS V14.01,2013-05-27 19:40:00,
2013-05-27 15:45:00,69.0,37.9,30.18,SSE,158,4.0,7.0,32,-99.99,,,0.00,510.00,VWS V14.01,2013-05-27 19:45:00,
2013-05-27 15:50:00,70.0,39.6,30.17,SSE,158,4.0,8.0,33,-99.99,,,0.00,570.00,VWS V14.01,2013-05-27 19:50:00,
2013-05-27 15:55:00,70.0,39.6,30.17,SE,135,4.0,5.0,33,-99.99,,,0.00,500.00,VWS V14.01,2013-05-27 19:55:00,
2013-05-27 16:01:00,70.0,38.8,30.17,ESE,112,4.0,5.0,32,-99.99,,,0.00,490.00,VWS V14.01,2013-05-27 20:01:00,
2013-05-27 16:06:00,70.0,38.0,30.17,SSE,158,5.0,11.0,31,-99.99,,,0.00,470.00,VWS V14.01,2013-05-27 20:06:00,
2013-05-27 16:11:00,69.0,37.1,30.17,SSE,158,7.0,8.0,31,-99.99,,,0.00,500.00,VWS V14.01,2013-05-27 20:11:00,
2013-05-27 16:16:00,70.0,38.0,30.17,SW,225,4.0,5.0,31,-99.99,,,0.00,470.00,VWS V14.01,2013-05-27 20:16:00,
2013-05-27 16:21:00,70.0,38.8,30.17,SSW,202,12.0,12.0,32,-99.99,,,0.00,460.00,VWS V14.01,2013-05-27 20:21:00,
2013-05-27 16:26:00,70.0,38.0,30.17,SW,225,5.0,7.0,31,-99.99,,,0.00,390.00,VWS V14.01,2013-05-27 20:26:00,
2013-05-27 16:31:00,70.0,38.8,30.17,SSE,158,8.0,10.0,32,-99.99,,,0.00,390.00,VWS V14.01,2013-05-27 20:31:00,
2013-05-27 16:36:00,70.0,39.6,30.17,SSW,202,12.0,13.0,33,-99.99,,,0.00,350.00,VWS V14.01,2013-05-27 20:36:00,
2013-05-27 16:41:00,69.0,37.9,30.16,West,270,3.0,8.0,32,-99.99,,,0.00,330.00,VWS V14.01,2013-05-27 20:41:00,
2013-05-27 16:46:00,70.0,41.1,30.17,SSW,202,2.0,4.0,35,-99.99,,,0.00,350.00,VWS V14.01,2013-05-27 20:46:00,
2013-05-27 16:51:00,69.0,39.5,30.17,SSE,158,9.0,10.0,34,-99.99,,,0.00,320.00,VWS V14.01,2013-05-27 20:51:00,
2013-05-27 16:56:00,69.0,38.7,30.17,ESE,112,4.0,7.0,33,-99.99,,,0.00,350.00,VWS V14.01,2013-05-27 20:56:00,
2013-05-27 17:01:00,70.0,39.6,30.17,SW,225,4.0,5.0,33,-99.99,,,0.00,320.00,VWS V14.01,2013-05-27 21:01:00,
2013-05-27 17:06:00,70.0,40.4,30.17,SE,135,7.0,9.0,34,-99.99,,,0.00,310.00,VWS V14.01,2013-05-27 21:06:00,
2013-05-27 17:11:00,69.0,40.2,30.16,SSE,158,7.0,8.0,35,-99.99,,,0.00,340.00,VWS V14.01,2013-05-27 21:11:00,
2013-05-27 17:16:00,69.0,39.5,30.16,South,180,6.0,7.0,34,-99.99,,,0.00,340.00,VWS V14.01,2013-05-27 21:16:00,
2013-05-27 17:21:00,70.0,39.6,30.16,South,180,4.0,5.0,33,-99.99,,,0.00,320.00,VWS V14.01,2013-05-27 21:21:00,
2013-05-27 17:26:00,69.0,38.7,30.16,South,180,6.0,8.0,33,-99.99,,,0.00,300.00,VWS V14.01,2013-05-27 21:26:00,
2013-05-27 17:31:00,70.0,39.6,30.16,SW,225,7.0,7.0,33,-99.99,,,0.00,300.00,VWS V14.01,2013-05-27 21:31:00,
2013-05-27 17:36:00,70.0,39.6,30.16,SW,225,5.0,5.0,33,-99.99,,,0.00,250.00,VWS V14.01,2013-05-27 21:36:00,
2013-05-27 17:41:00,70.0,40.4,30.16,South,180,7.0,8.0,34,-99.99,,,0.00,260.00,VWS V14.01,2013-05-27 21:41:00,
2013-05-27 17:46:00,70.0,40.4,30.16,SSW,202,6.0,6.0,34,-99.99,,,0.00,260.00,VWS V14.01,2013-05-27 21:46:00,
2013-05-27 17:51:00,70.0,38.8,30.16,SSE,158,6.0,7.0,32,-99.99,,,0.00,270.00,VWS V14.01,2013-05-27 21:51:00,
2013-05-27 17:56:00,70.0,39.6,30.16,SW,225,6.0,7.0,33,-99.99,,,0.00,290.00,VWS V14.01,2013-05-27 21:56:00,
2013-05-27 18:01:00,70.0,39.6,30.16,West,270,4.0,5.0,33,-99.99,,,0.00,300.00,VWS V14.01,2013-05-27 22:01:00,
2013-05-27 18:06:00,70.0,38.8,30.15,SW,225,5.0,7.0,32,-99.99,,,0.00,300.00,VWS V14.01,2013-05-27 22:06:00,
2013-05-27 18:11:00,70.0,39.6,30.15,SSE,158,2.0,4.0,33,-99.99,,,0.00,270.00,VWS V14.01,2013-05-27 22:11:00,
2013-05-27 18:16:00,71.0,40.5,30.15,SSW,202,4.0,4.0,33,-99.99,,,0.00,250.00,VWS V14.01,2013-05-27 22:16:00,
2013-05-27 18:21:00,71.0,40.5,30.15,WSW,248,4.0,4.0,33,-99.99,,,0.00,230.00,VWS V14.01,2013-05-27 22:21:00,
2013-05-27 18:26:00,71.0,41.2,30.15,NW,315,2.0,3.0,34,-99.99,,,0.00,260.00,VWS V14.01,2013-05-27 22:26:00,
2013-05-27 18:31:00,71.0,40.5,30.15,South,180,2.0,4.0,33,-99.99,,,0.00,210.00,VWS V14.01,2013-05-27 22:31:00,
2013-05-27 18:36:00,70.0,39.6,30.15,WSW,248,5.0,7.0,33,-99.99,,,0.00,210.00,VWS V14.01,2013-05-27 22:36:00,
2013-05-27 18:41:00,70.0,39.6,30.15,SW,225,5.0,6.0,33,-99.99,,,0.00,190.00,VWS V14.01,2013-05-27 22:41:00,
2013-05-27 18:46:00,71.0,41.2,30.15,SW,225,2.0,4.0,34,-99.99,,,0.00,190.00,VWS V14.01,2013-05-27 22:46:00,
2013-05-27 18:51:00,70.0,40.4,30.15,SW,225,4.0,8.0,34,-99.99,,,0.00,170.00,VWS V14.01,2013-05-27 22:51:00,
2013-05-27 18:56:00,70.0,40.4,30.14,SSE,158,7.0,9.0,34,-99.99,,,0.00,150.00,VWS V14.01,2013-05-27 22:56:00,
2013-05-27 19:01:00,70.0,41.1,30.15,SSE,158,6.0,6.0,35,-99.99,,,0.00,210.00,VWS V14.01,2013-05-27 23:01:00,
2013-05-27 19:06:00,70.0,40.4,30.15,SE,135,5.0,7.0,34,-99.99,,,0.00,210.00,VWS V14.01,2013-05-27 23:06:00,
2013-05-27 19:11:00,71.0,42.0,30.15,SE,135,3.0,4.0,35,-99.99,,,0.00,180.00,VWS V14.01,2013-05-27 23:11:00,
2013-05-27 19:16:00,71.0,41.2,30.15,SW,225,5.0,5.0,34,-99.99,,,0.00,120.00,VWS V14.01,2013-05-27 23:16:00,
2013-05-27 19:21:00,71.0,42.0,30.15,ESE,112,2.0,7.0,35,-99.99,,,0.00,100.00,VWS V14.01,2013-05-27 23:21:00,
2013-05-27 19:26:00,70.0,40.4,30.15,SSE,158,5.0,8.0,34,-99.99,,,0.00,90.00,VWS V14.01,2013-05-27 23:26:00,
2013-05-27 19:31:00,69.0,40.2,30.15,SSE,158,7.0,11.0,35,-99.99,,,0.00,70.00,VWS V14.01,2013-05-27 23:31:00,
2013-05-27 19:36:00,69.0,40.2,30.15,South,180,5.0,8.0,35,-99.99,,,0.00,50.00,VWS V14.01,2013-05-27 23:36:00,
2013-05-27 19:41:00,69.0,41.0,30.15,SE,135,7.0,10.0,36,-99.99,,,0.00,50.00,VWS V14.01,2013-05-27 23:41:00,
2013-05-27 19:46:00,69.0,41.0,30.15,SW,225,2.0,9.0,36,-99.99,,,0.00,40.00,VWS V14.01,2013-05-27 23:46:00,
2013-05-27 19:51:00,69.0,41.7,30.15,South,180,7.0,7.0,37,-99.99,,,0.00,30.00,VWS V14.01,2013-05-27 23:51:00,
2013-05-27 19:56:00,68.0,41.5,30.15,SSE,158,4.0,6.0,38,-99.99,,,0.00,20.00,VWS V14.01,2013-05-27 23:56:00,
2013-05-27 20:01:00,68.0,41.5,30.15,SE,135,4.0,5.0,38,-99.99,,,0.00,20.00,VWS V14.01,2013-05-28 00:01:00,
2013-05-27 20:06:00,68.0,42.1,30.15,South,180,4.0,6.0,39,-99.99,,,0.00,10.00,VWS V14.01,2013-05-28 00:06:00,
2013-05-27 20:11:00,67.0,41.2,30.15,SSW,202,6.0,7.0,39,-99.99,,,0.00,10.00,VWS V14.01,2013-05-28 00:11:00,
2013-05-27 20:16:00,67.0,41.2,30.15,ESE,112,4.0,6.0,39,-99.99,,,0.00,10.00,VWS V14.01,2013-05-28 00:16:00,
2013-05-27 20:21:00,67.0,41.9,30.15,ESE,112,4.0,4.0,40,-99.99,,,0.00,0.00,VWS V14.01,2013-05-28 00:21:00,
2013-05-27 20:26:00,67.0,41.9,30.15,SSE,158,4.0,4.0,40,-99.99,,,0.00,0.00,VWS V14.01,2013-05-28 00:26:00,
2013-05-27 20:31:00,67.0,42.5,30.15,SW,225,1.0,2.0,41,-99.99,,,0.00,0.00,VWS V14.01,2013-05-28 00:31:00,
2013-05-27 20:36:00,67.0,43.2,30.15,South,180,2.0,4.0,42,-99.99,,,0.00,0.00,VWS V14.01,2013-05-28 00:36:00,
2013-05-27 20:41:00,66.0,42.3,30.15,SSW,202,5.0,8.0,42,-99.99,,,0.00,0.00,VWS V14.01,2013-05-28 00:41:00,
2013-05-27 20:46:00,66.0,42.3,30.15,SSW,202,5.0,9.0,42,-99.99,,,0.00,0.00,VWS V14.01,2013-05-28 00:46:00,
2013-05-27 20:51:00,66.0,42.3,30.15,SW,225,1.0,3.0,42,-99.99,,,0.00,0.00,VWS V14.01,2013-05-28 00:51:00,
2013-05-27 20:56:00,65.0,41.4,30.15,SSE,158,4.0,6.0,42,-99.99,,,0.00,0.00,VWS V14.01,2013-05-28 00:56:00,
2013-05-27 21:01:00,65.0,42.0,30.15,South,180,7.0,7.0,43,-99.99,,,0.00,0.00,VWS V14.01,2013-05-28 01:01:00,
2013-05-27 21:06:00,65.0,42.6,30.15,SSE,158,7.0,8.0,44,-99.99,,,0.00,0.00,VWS V14.01,2013-05-28 01:06:00,
2013-05-27 21:11:00,64.0,41.7,30.15,SSE,158,5.0,9.0,44,-99.99,,,0.00,0.00,VWS V14.01,2013-05-28 01:11:00,
2013-05-27 21:16:00,64.0,42.3,30.15,SSE,158,6.0,7.0,45,-99.99,,,0.00,0.00,VWS V14.01,2013-05-28 01:16:00,
2013-05-27 21:21:00,64.0,42.3,30.16,SSE,158,10.0,12.0,45,-99.99,,,0.00,0.00,VWS V14.01,2013-05-28 01:21:00,
2013-05-27 21:26:00,64.0,42.8,30.16,SSE,158,6.0,9.0,46,-99.99,,,0.00,0.00,VWS V14.01,2013-05-28 01:26:00,
2013-05-27 21:31:00,64.0,43.4,30.16,SSE,158,5.0,8.0,47,-99.99,,,0.00,0.00,VWS V14.01,2013-05-28 01:31:00,
2013-05-27 21:36:00,64.0,43.4,30.16,SE,135,3.0,5.0,47,-99.99,,,0.00,0.00,VWS V14.01,2013-05-28 01:36:00,
2013-05-27 21:41:00,64.0,43.9,30.16,South,180,3.0,7.0,48,-99.99,,,0.00,0.00,VWS V14.01,2013-05-28 01:41:00,
2013-05-27 21:46:00,63.0,43.6,30.16,SSW,202,5.0,7.0,49,-99.99,,,0.00,0.00,VWS V14.01,2013-05-28 01:46:00,
2013-05-27 21:51:00,63.0,44.1,30.16,SE,135,2.0,3.0,50,-99.99,,,0.00,0.00,VWS V14.01,2013-05-28 01:51:00,
2013-05-27 21:56:00,63.0,44.6,30.16,SW,225,1.0,6.0,51,-99.99,,,0.00,0.00,VWS V14.01,2013-05-28 01:56:00,
2013-05-27 22:01:00,62.0,43.7,30.17,SSE,158,3.0,6.0,51,-99.99,,,0.00,0.00,VWS V14.01,2013-05-28 02:01:00,
2013-05-27 22:06:00,62.0,44.2,30.17,SSE,158,2.0,5.0,52,-99.99,,,0.00,0.00,VWS V14.01,2013-05-28 02:06:00,
2013-05-27 22:11:00,62.0,44.2,30.17,SSE,158,3.0,4.0,52,-99.99,,,0.00,0.00,VWS V14.01,2013-05-28 02:11:00,
2013-05-27 22:16:00,62.0,44.2,30.17,SSW,202,3.0,3.0,52,-99.99,,,0.00,0.00,VWS V14.01,2013-05-28 02:16:00,
2013-05-27 22:21:00,62.0,44.7,30.17,SW,225,3.0,4.0,53,-99.99,,,0.00,0.00,VWS V14.01,2013-05-28 02:21:00,
2013-05-27 22:26:00,62.0,45.2,30.17,SW,225,2.0,4.0,54,-99.99,,,0.00,0.00,VWS V14.01,2013-05-28 02:26:00,
2013-05-27 22:31:00,62.0,45.2,30.17,South,180,2.0,3.0,54,-99.99,,,0.00,0.00,VWS V14.01,2013-05-28 02:31:00,
2013-05-27 22:36:00,61.0,44.7,30.17,SSE,158,3.0,5.0,55,-99.99,,,0.00,0.00,VWS V14.01,2013-05-28 02:36:00,
2013-05-27 22:41:00,61.0,44.7,30.17,SSW,202,3.0,5.0,55,-99.99,,,0.00,0.00,VWS V14.01,2013-05-28 02:41:00,
2013-05-27 22:46:00,61.0,45.2,30.17,WSW,248,3.0,7.0,56,-99.99,,,0.00,0.00,VWS V14.01,2013-05-28 02:46:00,
2013-05-27 22:51:00,61.0,45.2,30.17,WSW,248,2.0,4.0,56,-99.99,,,0.00,0.00,VWS V14.01,2013-05-28 02:51:00,
2013-05-27 22:56:00,61.0,45.2,30.17,SSE,158,1.0,2.0,56,-99.99,,,0.00,0.00,VWS V14.01,2013-05-28 02:56:00,
2013-05-27 22:57:00,61.0,47.0,30.19,ENE,68,5.0,5.0,60,-99.99,,,0.00,0.00,VWS V14.01,2013-05-28 02:57:00,
2013-05-27 22:58:00,60.0,46.1,30.19,NE,45,4.0,5.0,60,-99.99,,,0.00,0.00,VWS V14.01,2013-05-28 02:58:00,
2013-05-27 22:59:00,60.0,46.1,30.19,ENE,68,2.0,4.0,60,-99.99,,,0.00,0.00,VWS V14.01,2013-05-28 02:59:00,
2013-05-27 23:00:00,60.0,46.1,30.19,ENE,68,2.0,3.0,60,-99.99,,,0.00,0.00,VWS V14.01,2013-05-28 03:00:00,
2013-05-27 23:01:00,61.0,45.2,30.17,SW,225,1.0,4.0,56,-99.99,,,0.00,0.00,VWS V14.01,2013-05-28 03:01:00,
2013-05-27 23:02:00,60.0,46.5,30.19,ENE,68,0.0,0.0,61,-99.99,,,0.00,0.00,VWS V14.01,2013-05-28 03:02:00,
2013-05-27 23:06:00,61.0,45.7,30.17,SSW,202,4.0,4.0,57,-99.99,,,0.00,0.00,VWS V14.01,2013-05-28 03:06:00,
2013-05-27 23:11:00,61.0,45.7,30.17,SSW,202,2.0,2.0,57,-99.99,,,0.00,0.00,VWS V14.01,2013-05-28 03:11:00,
2013-05-27 23:16:00,61.0,45.7,30.18,SSW,202,3.0,4.0,57,-99.99,,,0.00,0.00,VWS V14.01,2013-05-28 03:16:00,
2013-05-27 23:21:00,61.0,46.1,30.18,SW,225,3.0,4.0,58,-99.99,,,0.00,0.00,VWS V14.01,2013-05-28 03:21:00,
2013-05-27 23:26:00,61.0,46.1,30.18,SW,225,2.0,2.0,58,-99.99,,,0.00,0.00,VWS V14.01,2013-05-28 03:26:00,
2013-05-27 23:31:00,61.0,46.1,30.18,SW,225,3.0,3.0,58,-99.99,,,0.00,0.00,VWS V14.01,2013-05-28 03:31:00,
2013-05-27 23:36:00,60.0,45.7,30.18,SSW,202,4.0,4.0,59,-99.99,,,0.00,0.00,VWS V14.01,2013-05-28 03:36:00,
2013-05-27 23:41:00,60.0,45.7,30.18,WSW,248,4.0,4.0,59,-99.99,,,0.00,0.00,VWS V14.01,2013-05-28 03:41:00,
2013-05-27 23:46:00,61.0,46.1,30.18,South,180,2.0,3.0,58,-99.99,,,0.00,0.00,VWS V14.01,2013-05-28 03:46:00,
2013-05-27 23:51:00,61.0,46.1,30.19,SW,225,4.0,4.0,58,-99.99,,,0.00,0.00,VWS V14.01,2013-05-28 03:51:00,
2013-05-27 23:56:00,61.0,46.6,30.19,South,180,3.0,4.0,59,-99.99,,,0.00,0.00,VWS V14.01,2013-05-28 03:56:00,